Погода в Львувеке

Польша     52°26′52″N   16°10′55″E
темп.,
°C
ветер,
м/с
пор.,
м/с
влажн.,
%
обл.,
%
осадки,
мм/ч
давл.,
гПа
погр.,
м
1 марта, пн
пн101:00+1з359466 0.0 103595
04:00+1зсз239451 0.0 103562
07:00+1з239462 0.0 103626
10:00+5з238031 0.0 1036418
13:00+8з346925 0.0 1036553
16:00+8зюз34726 0.0 1035451
19:00+4зюз23873 0.0 103526
22:00+3зюз23890 0.0 103533
2 марта, вт
вт201:00+2зюз33920 0.0 103544
04:00+2зюз33930 0.0 103453
07:00+1з33940 0.0 103556
10:00+6зсз35790 0.0 1034284
13:00+10зсз34600 0.0 1034447
16:00+10зсз35600 0.0 1033403
19:00+6сз23740 0.0 103322
22:00+4ссв12840 0.0 103322
3 марта, ср
ср301:00+3в11830 0.0 103322
04:00+2ю11820 0.0 103122
07:00+2ююз22850 0.0 103022
10:00+8ююз23690 0.0 1029269
13:00+11ююз35550 0.0 1027506
16:00+11юз37570 0.0 1024606
19:00+7юз47740 0.0 1023124
22:00+6зюз49850 0.0 1021202
4 марта, чт
чт401:00+5зюз49910 0.0 1019200
04:00+4зюз410950 0.0 1017224
07:00+3з411960 0.0 1016321
10:00+7з6107694 0.0 1014581
13:00+10з7105887 0.0 10131049
16:00+9зсз695972 0.0 10111278
19:00+4ссз497786 0.0 1011710
22:00+3ссз4791100 0.1 1013560
5 марта, пт
пт501:000ссв61089100 0.5 1014628
04:00−1с598594 0.1 1016521
07:00−2ссз498452 0.1 1019408
10:00+2с57530 0.0 10211457
13:00+4ссз574233 0.4 10222050
16:00+4ссз674451 0.4 10221766
19:000сз366334 0.6 1024121
22:00−1зсз5106724 0.0 1026387